Location: Huberhof
(49.2050°N, 7.4980°E)
Time: 01:05:19
(UTC+00:00)

CZ-4B R/B - Pass Details

Date: 29 October 2020
Orbit: 388 x 462 km, 97.6° (Epoch: 26 November)

Event Time Altitude Azimuth Distance (km) Brightness Sun altitude
Rises 17:06:58 0° 15° (NNE) 2,395 4.8 -9.3°
Reaches altitude 10° 17:09:01 10° 18° (NNE) 1,511 3.8 -9.6°
Maximum altitude 17:12:14 69° 102° (ESE) 446 1.1 -10.1°
Drops below altitude 10° 17:15:20 10° 187° (S) 1,459 4.2 -10.6°
Sets 17:17:17 0° 190° (S) 2,302 5.2 -11.0°
